Weather in Bransk

Poland     52°44′30″N   22°50′18″E
temp.,
°C
wind,
m/s
gust,
m/s
humid.,
%
clouds,
%
prec.,
mm/h
press.,
hPa
HPBL,
m
22 september, wed
wed2223:00+7wnw3883100 0.0 1022225
02:00+6nw3985100 0.0 1021248
05:00+4n369482 0.0 1020131
08:00+6nnw488352 0.0 1021300
11:00+9n6966100 0.1 10211344
14:00+9nnw4863100 0.1 10211238
17:00+10nnw51065100 0.0 10211126
20:00+8n277493 0.0 1021317
23 september, thu
thu2323:00+6wnw348398 0.0 102096
02:00+5wnw3789100 0.0 1020131
05:00+6w3588100 0.0 1018141
08:00+9sw4884100 0.0 1016301
11:00+12wsw597699 0.1 1014701
14:00+15wsw71069100 0.0 10101268
17:00+14wsw71377100 0.1 1008862
20:00+14wsw81578100 0.4 1005921
24 september, fri
fri2423:00+13sw91791100 2.8 10001120
02:00+12wnw13198669 5.0 9981336
05:00+9w101782100 0.1 9991142
08:00+10w101879100 0.1 10011512
11:00+12wnw11177223 0.1 10021507
14:00+15wnw111764100 0.7 10041855
17:00+13wnw91472100 0.4 10061203
20:00+11wnw71373100 0.4 1009894
25 september, sat
sat2523:00+11w6116995 0.0 1010747
02:00+12w71464100 0.0 1008834
05:00+11wsw61376100 0.0 1010574
08:00+12wsw71480100 0.0 1011686
11:00+15w71278100 0.0 10121047
14:00+17w8117246 0.0 10121209
17:00+17w6106687 0.0 10131007
20:00+15wsw61274100 0.0 1016438
26 september, sun
sun2623:00+13w498515 0.0 1017204
02:00+11wnw36945 0.0 1019118
05:00+10nw359610 0.0 102089
08:00+11nnw238944 0.0 1022134
11:00+16n22676 0.0 1023769
14:00+18nne11555 0.0 10231133
17:00+17ene226145 0.0 102266
20:00+12e357441 0.0 102380